Regional Weather Roundup
Issued by NWS

Home | Current Version | Previous Version | Text Only | Print | Product List | Glossary On
Versions: 1 2 3 4 5 6 7 8 9 10 11 12 13 14 15 16 17 18 19 20 21 22 23 24 25 26 27 28 29
000
ASUS45 KCYS 262010
RWRWY

WYOMING REGIONAL WEATHER ROUNDUP
NATIONAL WEATHER SERVICE CHEYENNE WY
200 PM MDT THU APR 26 2018

NOTE:  "FAIR" INDICATES FEW OR NO CLOUDS BELOW 12,000 FEET
WITH NO SIGNIFICANT WEATHER AND/OR OBSTRUCTIONS TO VISIBILITY.

WYZ001-262100-
YELLOWSTONE NATIONAL PARK

CITY           SKY/WX    TMP DP  RH WIND       PRES   REMARKS
LK YELLOWSTONE   N/A     45  17  32 VRB3      30.35F
W YELLOWSTONE  NOT AVBL

$$
WYZ002>013-054>058-071-098>099-262100-
NORTHERN WYOMING

CITY           SKY/WX    TMP DP  RH WIND       PRES   REMARKS
JACKSON        FAIR      59   8  13 SW8       30.28F
CODY           FAIR      60  24  25 E8        30.25F
GREYBULL       FAIR      60  30  32 CALM      30.25F
WORLAND        FAIR      58  26  29 VRB3      30.25F
SHERIDAN       FAIR      62  33  33 NW9       30.22F
BUFFALO        FAIR      59  30  33 MISG      30.25F
GILLETTE       FAIR      57  31  37 SW7G17    30.23F
HULETT         FAIR      57  30  35 W14       30.23F
NEWCASTLE      FAIR      55  27  33 NW15G22   30.24F

$$
WYZ014>020-022>026-101>103-262100-
CENTRAL WYOMING

CITY           SKY/WX    TMP DP  RH WIND       PRES   REMARKS
BIG PINEY      FAIR      57  20  23 VRB6      30.30F
PINEDALE       FAIR      55  21  26 S5        30.31F
DUBOIS         FAIR      55  19  24 CALM      30.27F
LANDER         FAIR      59  25  27 N7        30.25F
RIVERTON       FAIR      59  26  28 E12       30.27F
CASPER         FAIR      56  27  32 NW6       30.27F
DOUGLAS        PTSUNNY   59  30  33 W16       30.26F

$$
WYZ021-027>030-104>119-262100-
SOUTHERN WYOMING

CITY           SKY/WX    TMP DP  RH WIND       PRES   REMARKS
EVANSTON       FAIR      60  24  25 VRB5      30.27F
KEMMERER       FAIR      59  21  23 CALM      30.30F
FORT BRIDGER   FAIR      61  22  21 E9        30.32F
ROCK SPRINGS   FAIR      57  20  23 NW8       30.30F
DIXON          FAIR      57  20  23 SW3       30.31F
RAWLINS        FAIR      54  19  25 NW10G20   30.30F
SARATOGA       FAIR      50  18  27 CALM      30.32S
LARAMIE        FAIR      49  21  33 NW10      30.29F
CHEYENNE       FAIR      50  24  36 N14G20    30.29F
TORRINGTON     PTSUNNY   57  27  31 N14       30.24F
PINE BLUFFS    FAIR      54  27  35 N9G20     30.27F

$$




USA.gov is the U.S. government's official web portal to all federal, state and local government web resources and services.